RYR91AC LICT-LIBD

Flight info

Callsign RYR91AC
Flight time 1h 6m
Altitude 36000
Route PAL DCT ROSAS DCT AMANO DCT NAXES DCT VARAL DCT POLIT DCT KUTID DCT VEGAN DCT BUMOK
Aircraft B738/M-SDE3FGILRWY/SB1

Departure

Time 2026-04-23 17:47
Airport Vincenzo Florio Airport Trapani-Birgi (LICT)

Arrival

Time 2026-04-23 18:53
Airport Bari Karol Wojtyła International Airport (LIBD)
Time Latitude Longitude Altitude Speed Heading
2026-04-23 17:14 37.90245 12.49660 29 ft 0 kts 261°
2026-04-23 17:43 37.90245 12.49658 29 ft 1 kts 265°
2026-04-23 17:43 37.90252 12.49655 29 ft 1 kts 355°
2026-04-23 17:43 37.90261 12.49676 29 ft 5 kts 59°
2026-04-23 17:43 37.90307 12.49730 30 ft 10 kts 37°
2026-04-23 17:44 37.90368 12.49713 32 ft 10 kts 307°
2026-04-23 17:44 37.90425 12.49665 34 ft 14 kts 12°
2026-04-23 17:44 37.90575 12.49716 34 ft 0 kts 308°
2026-04-23 17:46 37.90584 12.49702 34 ft 16 kts 308°
2026-04-23 17:46 37.90808 12.49338 32 ft 88 kts 308°
2026-04-23 17:46 37.91320 12.48506 27 ft 148 kts 309°
2026-04-23 17:47 37.92032 12.47350 276 ft 176 kts 313°
2026-04-23 17:47 37.92864 12.46092 542 ft 199 kts 318°
2026-04-23 17:47 37.95279 12.44338 1089 ft 214 kts 355°
2026-04-23 17:48 37.96769 12.44107 1627 ft 219 kts 356°
2026-04-23 17:48 37.98324 12.43888 2078 ft 232 kts 356°
2026-04-23 17:48 37.99960 12.43661 2635 ft 241 kts 356°
2026-04-23 17:48 38.01598 12.43144 3473 ft 247 kts 338°
2026-04-23 17:49 38.03125 12.42151 4405 ft 247 kts 336°
2026-04-23 17:49 38.04673 12.41158 5225 ft 252 kts 336°
2026-04-23 17:49 38.06262 12.40176 6019 ft 255 kts 341°
2026-04-23 17:49 38.08010 12.39882 6792 ft 257 kts
2026-04-23 17:50 38.09721 12.40509 7617 ft 258 kts 24°
2026-04-23 17:50 38.12331 12.43713 9161 ft 275 kts 55°
2026-04-23 17:50 38.13328 12.45807 9924 ft 279 kts 53°
2026-04-23 17:51 38.14306 12.47988 10448 ft 295 kts 63°
2026-04-23 17:51 38.14712 12.50688 10624 ft 329 kts 86°
2026-04-23 17:51 38.13713 12.56727 11470 ft 361 kts 101°
2026-04-23 17:52 38.13078 12.59834 12167 ft 365 kts 101°
2026-04-23 17:52 38.11866 12.66158 13649 ft 373 kts 99°
2026-04-23 17:52 38.11330 12.69393 14333 ft 377 kts 98°
2026-04-23 17:53 38.10280 12.76007 15696 ft 387 kts 97°
2026-04-23 17:53 38.09742 12.79367 16417 ft 391 kts 98°
2026-04-23 17:53 38.09190 12.82776 17106 ft 396 kts 98°
2026-04-23 17:54 38.08626 12.86226 17778 ft 401 kts 98°
2026-04-23 17:54 38.08052 12.89716 18426 ft 406 kts 98°
2026-04-23 17:54 38.06878 12.96815 19530 ft 416 kts 98°
2026-04-23 17:55 38.05672 13.04089 20626 ft 426 kts 98°
2026-04-23 17:55 38.05068 13.07783 21160 ft 430 kts 95°
2026-04-23 17:55 38.05009 13.11536 21635 ft 423 kts 74°
2026-04-23 17:56 38.05924 13.15018 22263 ft 412 kts 56°
2026-04-23 17:56 38.09673 13.20213 23421 ft 396 kts 26°
2026-04-23 17:56 38.12133 13.21698 23873 ft 391 kts 14°
2026-04-23 17:57 38.14704 13.22843 24359 ft 392 kts 14°
2026-04-23 17:57 38.17296 13.23941 24864 ft 393 kts 14°
2026-04-23 17:57 38.22528 13.26152 25748 ft 399 kts 14°
2026-04-23 17:58 38.25169 13.27288 26180 ft 402 kts 14°
2026-04-23 17:58 38.27825 13.28443 26591 ft 405 kts 14°
2026-04-23 17:58 38.30495 13.29613 27006 ft 407 kts 14°
2026-04-23 17:58 38.33182 13.30796 27410 ft 410 kts 13°
2026-04-23 17:59 38.35885 13.31989 27805 ft 413 kts 13°
2026-04-23 17:59 38.38567 13.33174 28285 ft 413 kts 16°
2026-04-23 17:59 38.41315 13.34391 28743 ft 414 kts 16°
2026-04-23 17:59 38.44008 13.35585 29056 ft 417 kts 16°
2026-04-23 18:00 38.46764 13.36806 29378 ft 421 kts 16°
2026-04-23 18:00 38.49527 13.38032 29849 ft 420 kts 15°
2026-04-23 18:00 38.52282 13.39256 30358 ft 418 kts 15°
2026-04-23 18:00 38.55021 13.40474 30777 ft 417 kts 15°
2026-04-23 18:01 38.57799 13.41709 31149 ft 417 kts 15°
2026-04-23 18:01 38.60497 13.42909 31576 ft 415 kts 16°
2026-04-23 18:01 38.63217 13.44121 32056 ft 412 kts 15°
2026-04-23 18:01 38.65922 13.45326 32412 ft 413 kts 15°
2026-04-23 18:02 38.67756 13.46143 32622 ft 413 kts 15°
2026-04-23 18:02 38.71354 13.47748 33096 ft 413 kts 15°
2026-04-23 18:02 38.74065 13.48959 33491 ft 412 kts 15°
2026-04-23 18:02 38.76772 13.50170 33893 ft 412 kts 15°
2026-04-23 18:03 38.79478 13.51380 34193 ft 412 kts 15°
2026-04-23 18:03 38.82180 13.52590 34562 ft 410 kts 15°
2026-04-23 18:03 38.84865 13.53794 34883 ft 409 kts 15°
2026-04-23 18:03 38.87555 13.54999 35080 ft 411 kts 15°
2026-04-23 18:04 38.90261 13.56211 35299 ft 412 kts 15°
2026-04-23 18:04 38.92968 13.57425 35584 ft 412 kts 15°
2026-04-23 18:04 38.95669 13.58639 35860 ft 411 kts 15°
2026-04-23 18:04 38.98371 13.59853 36076 ft 412 kts 15°
2026-04-23 18:05 39.01094 13.61077 36095 ft 417 kts 16°
2026-04-23 18:05 39.06591 13.63553 36099 ft 418 kts 17°
2026-04-23 18:06 39.12029 13.66010 36092 ft 411 kts 17°
2026-04-23 18:06 39.17417 13.68445 36108 ft 411 kts 17°
2026-04-23 18:07 39.22813 13.70888 36104 ft 411 kts 17°
2026-04-23 18:07 39.28168 13.73316 36106 ft 411 kts 17°
2026-04-23 18:08 39.32690 13.75370 36104 ft 411 kts 18°
2026-04-23 18:08 39.38947 13.78250 36104 ft 412 kts 21°
2026-04-23 18:09 39.43838 13.82144 36105 ft 416 kts 38°
2026-04-23 18:09 39.47895 13.87521 36121 ft 419 kts 45°
2026-04-23 18:10 39.51160 13.92215 36115 ft 418 kts 45°
2026-04-23 18:10 39.55043 13.97776 36101 ft 418 kts 45°
2026-04-23 18:11 39.58953 14.03333 36098 ft 417 kts 45°
2026-04-23 18:11 39.62860 14.08871 36111 ft 415 kts 45°
2026-04-23 18:12 39.66745 14.14387 36094 ft 413 kts 45°
2026-04-23 18:12 39.70609 14.19883 36096 ft 410 kts 45°
2026-04-23 18:13 39.74441 14.25344 36096 ft 408 kts 45°
2026-04-23 18:13 39.78248 14.30780 36096 ft 406 kts 45°
2026-04-23 18:14 39.82035 14.36197 36095 ft 404 kts 46°
2026-04-23 18:14 39.85820 14.41619 36096 ft 404 kts 46°
2026-04-23 18:15 39.89599 14.47044 36098 ft 405 kts 46°
2026-04-23 18:15 39.93378 14.52493 36094 ft 406 kts 46°
2026-04-23 18:16 39.97166 14.57967 36097 ft 407 kts 46°
2026-04-23 18:16 40.00958 14.63455 36099 ft 408 kts 46°
2026-04-23 18:17 40.06665 14.71685 36090 ft 408 kts 46°
2026-04-23 18:17 40.10467 14.77173 36092 ft 407 kts 46°
2026-04-23 18:18 40.14260 14.82658 36094 ft 406 kts 46°
2026-04-23 18:18 40.18102 14.88058 36091 ft 405 kts 45°
2026-04-23 18:19 40.21975 14.93376 36113 ft 403 kts 45°
2026-04-23 18:19 40.25833 14.98695 36098 ft 402 kts 45°
2026-04-23 18:20 40.29673 15.04021 36095 ft 401 kts 45°
2026-04-23 18:20 40.33499 15.09341 36093 ft 400 kts 45°
2026-04-23 18:21 40.35395 15.11983 35964 ft 397 kts 45°
2026-04-23 18:21 40.37275 15.14603 35694 ft 390 kts 45°
2026-04-23 18:21 40.39122 15.17179 35334 ft 385 kts 46°
2026-04-23 18:21 40.40948 15.19728 34983 ft 382 kts 46°
2026-04-23 18:22 40.42760 15.22256 34664 ft 377 kts 46°
2026-04-23 18:22 40.44518 15.24705 34436 ft 371 kts 46°
2026-04-23 18:22 40.46295 15.27178 34190 ft 364 kts 46°
2026-04-23 18:22 40.48024 15.29587 33870 ft 360 kts 46°
2026-04-23 18:23 40.49156 15.31165 33625 ft 358 kts 46°
2026-04-23 18:23 40.53085 15.36652 32779 ft 349 kts 47°
2026-04-23 18:24 40.56374 15.41253 32094 ft 342 kts 47°
2026-04-23 18:24 40.57990 15.43517 31780 ft 338 kts 47°
2026-04-23 18:24 40.59576 15.45739 31438 ft 335 kts 48°
2026-04-23 18:25 40.62422 15.50498 30887 ft 326 kts 54°
2026-04-23 18:25 40.63740 15.52932 30652 ft 328 kts 54°
2026-04-23 18:25 40.65070 15.55387 30416 ft 328 kts 54°
2026-04-23 18:25 40.66391 15.57819 30119 ft 325 kts 55°
2026-04-23 18:26 40.67705 15.60228 29757 ft 322 kts 54°
2026-04-23 18:26 40.69005 15.62608 29414 ft 318 kts 54°
2026-04-23 18:26 40.70289 15.64960 29082 ft 314 kts 55°
2026-04-23 18:26 40.71558 15.67284 28730 ft 311 kts 55°
2026-04-23 18:27 40.72817 15.69589 28367 ft 309 kts 55°
2026-04-23 18:27 40.74067 15.71877 28038 ft 306 kts 55°
2026-04-23 18:27 40.75302 15.74140 27704 ft 302 kts 55°
2026-04-23 18:27 40.76524 15.76380 27385 ft 300 kts 55°
2026-04-23 18:28 40.77737 15.78605 27050 ft 298 kts 55°
2026-04-23 18:28 40.78944 15.80822 26730 ft 297 kts 55°
2026-04-23 18:28 40.80146 15.83032 26417 ft 296 kts 55°
2026-04-23 18:28 40.81353 15.85252 26105 ft 301 kts 55°
2026-04-23 18:29 40.82593 15.87536 25785 ft 310 kts 54°
2026-04-23 18:29 40.83860 15.89869 25440 ft 313 kts 54°
2026-04-23 18:29 40.85122 15.92196 25109 ft 311 kts 54°
2026-04-23 18:29 40.86378 15.94513 24754 ft 309 kts 54°
2026-04-23 18:30 40.87623 15.96811 24425 ft 307 kts 54°
2026-04-23 18:30 40.88861 15.99099 24105 ft 305 kts 54°
2026-04-23 18:30 40.90090 16.01370 23794 ft 303 kts 54°
2026-04-23 18:30 40.91314 16.03634 23428 ft 302 kts 54°
2026-04-23 18:31 40.92531 16.05887 23060 ft 300 kts 54°
2026-04-23 18:31 40.93738 16.08123 22729 ft 297 kts 54°
2026-04-23 18:31 40.94710 16.10510 22406 ft 295 kts 71°
2026-04-23 18:31 40.95112 16.13175 21969 ft 300 kts 84°
2026-04-23 18:32 40.95076 16.15934 21660 ft 299 kts 88°
2026-04-23 18:32 40.94969 16.18678 21315 ft 298 kts 89°
2026-04-23 18:32 40.94854 16.21403 20997 ft 296 kts 89°
2026-04-23 18:32 40.94744 16.24111 20686 ft 294 kts 88°
2026-04-23 18:33 40.94640 16.26798 20375 ft 292 kts 88°
2026-04-23 18:33 40.94541 16.29472 20071 ft 290 kts 88°
2026-04-23 18:33 40.94445 16.32129 19774 ft 288 kts 88°
2026-04-23 18:33 40.94351 16.34767 19478 ft 286 kts 88°
2026-04-23 18:34 40.94258 16.37389 19198 ft 285 kts 88°
2026-04-23 18:34 40.94165 16.40006 18905 ft 284 kts 88°
2026-04-23 18:34 40.94073 16.42614 18601 ft 284 kts 88°
2026-04-23 18:34 40.93981 16.45218 18284 ft 283 kts 88°
2026-04-23 18:35 40.93887 16.47810 17948 ft 282 kts 88°
2026-04-23 18:35 40.93793 16.50392 17645 ft 280 kts 88°
2026-04-23 18:35 40.93793 16.52941 17337 ft 274 kts 77°
2026-04-23 18:35 40.94350 16.55313 17045 ft 269 kts 67°
2026-04-23 18:36 40.95016 16.57619 16739 ft 268 kts 66°
2026-04-23 18:36 40.95682 16.59911 16445 ft 266 kts 66°
2026-04-23 18:36 40.96344 16.62195 16160 ft 265 kts 66°
2026-04-23 18:36 40.96998 16.64466 15864 ft 264 kts 67°
2026-04-23 18:37 40.97647 16.66730 15596 ft 262 kts 67°
2026-04-23 18:37 40.98292 16.68984 15302 ft 261 kts 66°
2026-04-23 18:37 40.98934 16.71236 15028 ft 263 kts 67°
2026-04-23 18:37 40.99586 16.73524 14747 ft 267 kts 67°
2026-04-23 18:38 41.00249 16.75855 14465 ft 274 kts 67°
2026-04-23 18:38 41.00925 16.78235 14166 ft 279 kts 67°
2026-04-23 18:38 41.01604 16.80635 13859 ft 278 kts 67°
2026-04-23 18:38 41.02281 16.83028 13524 ft 277 kts 67°
2026-04-23 18:39 41.02954 16.85407 13201 ft 275 kts 67°
2026-04-23 18:39 41.03623 16.87775 12890 ft 274 kts 67°
2026-04-23 18:39 41.04287 16.90130 12591 ft 272 kts 67°
2026-04-23 18:39 41.04939 16.92442 12298 ft 271 kts 67°
2026-04-23 18:40 41.05603 16.94799 12036 ft 268 kts 67°
2026-04-23 18:40 41.06229 16.97025 12000 ft 257 kts 67°
2026-04-23 18:40 41.06844 16.99214 11895 ft 249 kts 67°
2026-04-23 18:40 41.07438 17.01332 11796 ft 242 kts 67°
2026-04-23 18:41 41.08015 17.03388 11703 ft 234 kts 67°
2026-04-23 18:41 41.08580 17.05397 11507 ft 231 kts 66°
2026-04-23 18:41 41.09136 17.07372 11306 ft 228 kts 66°
2026-04-23 18:41 41.09689 17.09337 11078 ft 227 kts 66°
2026-04-23 18:42 41.10238 17.11288 10839 ft 226 kts 66°
2026-04-23 18:42 41.10785 17.13236 10603 ft 225 kts 66°
2026-04-23 18:42 41.11327 17.15172 10370 ft 224 kts 66°
2026-04-23 18:42 41.11862 17.17095 10152 ft 222 kts 67°
2026-04-23 18:43 41.12394 17.19011 9917 ft 221 kts 67°
2026-04-23 18:43 41.12925 17.20925 9669 ft 220 kts 66°
2026-04-23 18:43 41.13451 17.22823 9428 ft 218 kts 66°
2026-04-23 18:43 41.13970 17.24697 9216 ft 216 kts 66°
2026-04-23 18:44 41.14489 17.26564 8983 ft 217 kts 67°
2026-04-23 18:44 41.15017 17.28460 8770 ft 222 kts 67°
2026-04-23 18:44 41.15556 17.30401 8531 ft 225 kts 66°
2026-04-23 18:44 41.16215 17.32265 8239 ft 222 kts 49°
2026-04-23 18:45 41.17430 17.33477 8009 ft 220 kts 24°
2026-04-23 18:45 41.18920 17.33906 7766 ft 223 kts
2026-04-23 18:45 41.20450 17.33523 7518 ft 227 kts 345°
2026-04-23 18:45 41.21936 17.32796 7250 ft 228 kts 343°
2026-04-23 18:46 41.23420 17.32064 7017 ft 228 kts 344°
2026-04-23 18:46 41.24905 17.31334 6835 ft 225 kts 343°
2026-04-23 18:46 41.26221 17.30247 6702 ft 227 kts 315°
2026-04-23 18:46 41.26933 17.28352 6490 ft 240 kts 286°
2026-04-23 18:47 41.26834 17.26119 6289 ft 245 kts 256°
2026-04-23 18:47 41.26259 17.23991 6049 ft 245 kts 252°
2026-04-23 18:47 41.25653 17.21872 5804 ft 245 kts 253°
2026-04-23 18:47 41.25055 17.19760 5575 ft 244 kts 252°
2026-04-23 18:48 41.24457 17.17651 5337 ft 244 kts 254°
2026-04-23 18:48 41.23864 17.15544 5050 ft 246 kts 255°
2026-04-23 18:48 41.23267 17.13404 4799 ft 246 kts 253°
2026-04-23 18:48 41.22672 17.11280 4543 ft 246 kts 255°
2026-04-23 18:49 41.22078 17.09155 4306 ft 244 kts 253°
2026-04-23 18:49 41.21488 17.07044 4091 ft 242 kts 254°
2026-04-23 18:49 41.20962 17.04926 3843 ft 240 kts 259°
2026-04-23 18:49 41.20475 17.02815 3609 ft 238 kts 258°
2026-04-23 18:50 41.20154 17.01427 3464 ft 237 kts 259°
2026-04-23 18:50 41.19512 16.98670 3153 ft 235 kts 258°
2026-04-23 18:50 41.19026 16.96598 2915 ft 235 kts 258°
2026-04-23 18:50 41.18540 16.94542 2681 ft 233 kts 259°
2026-04-23 18:51 41.18057 16.92500 2444 ft 231 kts 259°
2026-04-23 18:51 41.17564 16.90461 2182 ft 232 kts 258°
2026-04-23 18:51 41.17064 16.88412 1870 ft 233 kts 258°
2026-04-23 18:51 41.16572 16.86414 1575 ft 222 kts 259°
2026-04-23 18:52 41.16106 16.84524 1285 ft 208 kts 259°
2026-04-23 18:52 41.15673 16.82760 1025 ft 194 kts 258°
2026-04-23 18:52 41.15272 16.81109 791 ft 181 kts 257°
2026-04-23 18:52 41.14847 16.79634 635 ft 160 kts 257°
2026-04-23 18:53 41.14485 16.78320 393 ft 143 kts 256°
2026-04-23 18:53 41.14158 16.77152 172 ft 127 kts 255°
2026-04-23 18:53 41.13898 16.76220 148 ft 79 kts 249°
2026-04-23 18:53 41.13780 16.75808 151 ft 25 kts 249°
2026-04-23 18:54 41.13658 16.75667 154 ft 23 kts 215°
2026-04-23 18:54 41.13577 16.75753 157 ft 22 kts 72°
2026-04-23 18:54 41.13602 16.75837 157 ft 5 kts 70°
2026-04-23 18:54 41.13614 16.75881 157 ft 5 kts 70°
2026-04-23 18:55 41.13623 16.75916 157 ft 8 kts 70°
2026-04-23 18:55 41.13631 16.76016 157 ft 15 kts 113°
2026-04-23 18:55 41.13554 16.76151 158 ft 21 kts 91°
2026-04-23 18:55 41.13599 16.76328 158 ft 20 kts 69°
2026-04-23 18:56 41.13634 16.76455 158 ft 6 kts 76°
2026-04-23 18:56 41.13590 16.76499 158 ft 6 kts 158°
2026-04-23 18:56 41.13583 16.76503 158 ft 1 kts 159°
2026-04-23 18:56 41.13575 16.76507 158 ft 2 kts 159°
2026-04-23 18:57 41.13571 16.76509 158 ft 0 kts 159°